This demonstration page uses our WeatherBlox Daily Observations layout. Learn more.

Hourly Observations for July 24, 2020

Temp ( °F °C ) Dew Point ( °F °C ) Humidity (%) Winds ( mph kmh ) Pressure ( in mb ) Visibility ( mi km ) Precip ( " mm )
12:15 am 00:15 Clear 77 25.2 70 21.1 78 78 SSE 13 20 29.89 1012 10 16.0934 0 0
12:35 am 00:35 Clear 77 25.1 70 21 78 78 SSE 10 17 29.89 1012 10 16.0934 0 0
12:55 am 00:55 Clear 77 25.1 69 20.8 77 77 SSE 12 19 29.9 1012 10 16.0934 0 0
1:15 am 01:15 Clear 77 25.1 69 20.8 77 77 S 13 20 29.9 1012 10 16.0934 0 0
1:35 am 01:35 Clear 77 25 70 21 79 79 S 12 19 29.9 1012 10 16.0934 0 0
1:55 am 01:55 Clear 77 24.9 70 21.1 79 79 S 10 17 29.9 1012 10 16.0934 0 0
2:15 am 02:15 Clear 76 24.5 70 21.2 82 82 SSE 12 19 29.89 1012 10 16.0934 0 0
2:35 am 02:35 Clear 76 24.3 70 21.3 83 83 S 9 15 29.9 1013 10 16.0934 0 0
2:55 am 02:55 Mostly Cloudy 76 24.2 71 21.5 85 85 S 10 17 29.9 1013 10 16.0934 0 0
3:15 am 03:15 Partly Cloudy 75 24.1 71 21.5 85 85 SSE 12 19 29.9 1013 10 16.0934 0 0
3:35 am 03:35 Clear 75 24 71 21.6 87 87 SSE 10 17 29.89 1012 10 16.0934 0 0
3:55 am 03:55 Clear 75 24 71 21.6 87 87 SSE 12 19 29.89 1012 10 16.0934 0 0
4:15 am 04:15 Mostly Cloudy 75 24 71 21.7 87 87 S 12 19 29.89 1012 10 16.0934 0 0
4:35 am 04:35 Partly Cloudy 75 23.8 71 21.7 88 88 SSE 9 15 29.89 1012 10 16.0934 0 0
4:55 am 04:55 Partly Cloudy 75 23.8 72 22 90 90 S 13 20 29.9 1012 10 16.0934 0 0
5:15 am 05:15 Mostly Cloudy 75 23.7 72 22 90 90 S 12 19 29.9 1012 10 16.0934 0 0
5:35 am 05:35 Mostly Cloudy 75 23.7 72 22 90 90 S 10 17 29.9 1012 10 16.0934 0 0
5:55 am 05:55 Mostly Cloudy 75 23.7 72 22.1 91 91 SSE 7 11 29.9 1012 10 16.0934 0 0
6:15 am 06:15 Cloudy 74 23.6 72 22.2 92 92 SSE 9 15 29.89 1012 10 16.0934 0 0
6:35 am 06:35 Cloudy 74 23.6 72 22.3 92 92 SSE 10 17 29.9 1012 10 16.0934 0 0
6:55 am 06:55 Cloudy 75 23.9 72 22.3 91 91 SSE 9 15 29.9 1012 10 16.0934 0 0
7:15 am 07:15 Cloudy 75 23.8 72 22.4 92 92 SSE 9 15 29.9 1012 10 16.0934 0 0
7:35 am 07:35 Cloudy 75 23.8 73 22.5 92 92 SSE 10 17 29.9 1012 10 16.0934 0 0
7:55 am 07:55 Cloudy 75 24.1 73 22.5 91 91 S 14 22 29.9 1013 10 16.0934 0 0
8:15 am 08:15 Mostly Cloudy 76 24.3 73 22.5 90 90 S 13 20 29.9 1013 10 16.0934 0 0
8:35 am 08:35 Partly Cloudy 76 24.5 72 22.3 88 88 S 15 24 29.9 1013 10 16.0934 0 0
8:55 am 08:55 Mostly Cloudy 77 24.9 73 22.5 87 87 S 12 19 29.9 1012 10 16.0934 0 0
9:15 am 09:15 Mostly Cloudy 78 25.5 72 22.4 83 83 S 13 20 29.89 1012 10 16.0934 0 0
9:35 am 09:35 Mostly Cloudy 79 26 72 22.4 81 81 S 16 26 29.89 1012 10 16.0934 0 0
9:55 am 09:55 Mostly Cloudy 79 26.3 73 22.6 80 80 S 17 28 29.89 1012 10 16.0934 0 0
10:15 am 10:15 Partly Cloudy 82 27.5 73 22.5 74 74 S 17 28 29.88 1012 10 16.0934 0 0
10:35 am 10:35 Partly Cloudy 81 27.1 72 22.3 75 75 S 17 28 29.87 1012 10 16.0934 0 0
10:55 am 10:55 Partly Cloudy 82 27.5 72 22.4 74 74 S 17 28 29.87 1011 10 16.0934 0 0
11:15 am 11:15 Sunny 82 27.7 73 22.6 74 74 SSE 16 26 29.87 1011 10 16.0934 0 0
11:35 am 11:35 Sunny 84 29.1 72 22.4 67 67 S 18 30 29.86 1011 10 16.0934 0 0
11:55 am 11:55 Sunny 85 29.7 72 22.4 65 65 S 17 28 29.85 1011 10 16.0934 0 0
12:15 pm 12:15 Sunny 86 30.1 72 22.3 63 63 S 22 35 29.84 1010 10 16.0934 0 0
12:35 pm 12:35 Sunny 87 30.4 73 22.6 63 63 S 20 31 29.83 1010 10 16.0934 0 0
12:55 pm 12:55 Partly Cloudy 87 30.7 73 22.7 62 62 SSE 15 24 29.83 1010 10 16.0934 0 0
1:15 pm 13:15 Partly Cloudy 88 31.1 72 22.3 59 59 SSE 17 28 29.83 1010 10 16.0934 0 0
1:35 pm 13:35 Partly Cloudy 89 31.5 72 22.1 57 57 S 16 26 29.83 1010 10 16.0934 0 0
1:55 pm 13:55 Partly Cloudy 89 31.5 72 22.2 58 58 SSE 17 28 29.82 1010 10 16.0934 0 0
2:15 pm 14:15 Partly Cloudy 89 31.9 72 22.2 56 56 SSE 20 31 29.8 1009 10 16.0934 0 0
2:35 pm 14:35 Partly Cloudy 90 32.2 72 22.3 56 56 S 21 33 29.8 1009 10 16.0934 0 0
2:55 pm 14:55 Partly Cloudy 90 32 71 21.8 55 55 SSE 21 33 29.79 1009 10 16.0934 0 0
3:15 pm 15:15 Sunny 91 32.6 71 21.5 52 52 S 20 31 29.79 1009 10 16.0934 0 0
3:35 pm 15:35 Partly Cloudy 91 32.5 72 22 54 54 SSE 21 33 29.79 1009 10 16.0934 0 0
3:55 pm 15:55 Partly Cloudy 91 32.7 72 22 53 53 SSE 16 26 29.79 1009 10 16.0934 0 0
4:15 pm 16:15 Partly Cloudy 91 32.8 71 21.6 52 52 SSE 20 31 29.77 1008 10 16.0934 0 0
4:35 pm 16:35 Partly Cloudy 91 32.5 71 21.8 53 53 SSE 16 26 29.79 1009 10 16.0934 0 0
4:55 pm 16:55 Partly Cloudy 90 32.3 72 22.1 55 55 SSE 18 30 29.77 1008 10 16.0934 0 0
5:15 pm 17:15 Partly Cloudy 90 32.3 72 22.1 55 55 SSE 20 31 29.77 1008 10 16.0934 0 0
5:35 pm 17:35 Partly Cloudy 90 32.4 72 22.1 55 55 SSE 21 33 29.76 1008 10 16.0934 0 0
5:55 pm 17:55 Sunny 90 32.2 71 21.6 54 54 SSE 17 28 29.75 1007 10 16.0934 0 0
6:15 pm 18:15 Sunny 90 32 70 21.3 53 53 SSE 20 31 29.74 1007 10 16.0934 0 0
6:35 pm 18:35 Sunny 89 31.7 71 21.7 55 55 SSE 17 28 29.74 1007 10 16.0934 0 0
6:55 pm 18:55 Sunny 89 31.4 71 21.8 57 57 SSE 14 22 29.75 1007 10 16.0934 0 0
7:15 pm 19:15 Sunny 88 31 72 22 59 59 SSE 17 28 29.74 1007 10 16.0934 0 0
7:35 pm 19:35 Sunny 87 30.4 72 22 61 61 SSE 15 24 29.73 1007 10 16.0934 0 0
7:55 pm 19:55 Sunny 85 29.4 72 22 64 64 SSE 12 19 29.75 1008 10 16.0934 0 0
8:15 pm 20:15 Sunny 84 28.9 71 21.4 64 64 SSE 14 22 29.76 1008 10 16.0934 0 0
8:35 pm 20:35 Sunny 83 28.3 70 21.3 66 66 SSE 13 20 29.75 1007 10 16.0934 0 0
8:55 pm 20:55 Sunny 82 28 70 21.2 67 67 SSE 10 17 29.75 1008 10 16.0934 0 0
9:15 pm 21:15 Clear 82 27.5 70 21.1 68 68 SSE 13 20 29.76 1008 10 16.0934 0 0
9:35 pm 21:35 Clear 81 27.4 70 21.1 69 69 SSE 12 19 29.77 1008 10 16.0934 0 0
9:55 pm 21:55 Clear 81 27.2 70 21.2 70 70 SSE 12 19 29.79 1009 10 16.0934 0 0
10:15 pm 22:15 Clear 81 27.1 70 21.1 70 70 SSE 13 20 29.82 1010 10 16.0934 0 0
10:35 pm 22:35 Clear 80 26.5 70 21.2 73 73 SSE 12 19 29.82 1010 10 16.0934 0 0
10:55 pm 22:55 Clear 79 26 70 21.3 75 75 SE 12 19 29.84 1010 10 16.0934 0 0
11:15 pm 23:15 Clear 78 25.8 70 21.3 76 76 SSE 12 19 29.84 1011 10 16.0934 0 0
11:35 pm 23:35 Clear 78 25.8 71 21.6 78 78 SSE 12 19 29.85 1011 10 16.0934 0 0
11:55 pm 23:55 Clear 78 25.8 71 21.5 77 77 SSE 10 17 29.85 1011 10 16.0934 0 0

Powered by AerisWeather